Regional Weather Roundup
Issued by NWS

Home | Current Version | Previous Version | Text Only | Print | Product List | Glossary Off
Versions: 1 2 3 4 5 6 7 8 9 10 11 12 13 14 15 16 17 18 19 20 21 22 23 24 25 26 27 28 29 30 31 32 33 34 35 36 37 38 39 40 41 42 43 44 45 46 47 48 49 50

000
ASUS45 KBOU 200407
RWRCO

WEATHER ROUNDUP FOR COLORADO
NATIONAL WEATHER SERVICE DENVER/BOULDER CO
900 PM MST WED NOV 19 2014

NOTE: "FAIR" INDICATES FEW OR NO CLOUDS BELOW 12000 FEET WITH NO
SIGNIFICANT WEATHER AND/OR OBSTRUCTIONS TO VISIBILITY.

COZ001>005-013-030-031-200500-
...NORTHWEST COLORADO...

CITY           SKY/WX    TMP DP  RH WIND       PRES   REMARKS
CRAIG          PTCLDY    20  14  77 SE5       30.13S WCI  13
HAYDEN         CLEAR     23  10  58 CALM      30.13R
MEEKER         PTCLDY    29  18  63 VRB3      30.14S
MOUNT WERNER   NOT AVBL
STEAMBOAT SPGS MOCLDY    24  15  68 CALM      30.13S
WALDEN         CLOUDY    28  12  50 S9        30.10S WCI  20
$$

COZ006>008-011-200500-
...WEST CENTRAL VALLEYS...

CITY           SKY/WX    TMP DP  RH WIND       PRES   REMARKS
GRAND JUNCTION PTCLDY    31  12  45 E6        30.17S WCI  25
MONTROSE       PTCLDY    28  16  60 SE6       30.19S WCI  22
EAGLE          PTCLDY    25  18  74 CALM      30.19R
RIFLE          CLEAR     26  16  65 CALM      30.18S
DELTA          PTCLDY    32  14  46 NE7       30.18S WCI  26
NUCLA          PTCLDY    32  21  64 SE9       30.19S WCI  24
$$

COZ017>023-064>068-200500-
...SOUTHWEST COLORADO...

CITY           SKY/WX    TMP DP  RH WIND       PRES   REMARKS
DURANGO        CLEAR     28  17  63 N5        30.18S WCI  23
CORTEZ         CLEAR     23  17  78 CALM      30.17F
PAGOSA SPRINGS CLEAR     27  17  66 CALM      30.20S
TELLURIDE      NOT AVBL
WOLF CREEK PAS PTCLDY    18   5  57 SW18      30.22S WCI   2
$$

COZ009-010-012-014-032>034-037-058>063-200500-
...CENTRAL COLORADO...

CITY           SKY/WX    TMP DP  RH WIND       PRES   REMARKS
ASPEN          PTCLDY    22  12  65 SW9       30.17R WCI  12
BUENA VISTA    PTCLDY    34   4  28 W14       30.09S WCI  24
COPPER MTN     PTCLDY    19   1  45 W21       30.17R WCI   3
BERTHOUD PASS  FAIR      10   7  85 NW32G43   30.09R WCI -12
COTTONWOOD PAS PTCLDY    34 -18  10 NW9G22    30.11R WCI  26
GUNNISON       PTCLDY    10   0  61 CALM      30.23S
KREMMLING      PTCLDY    23  12  63 E5        30.15R WCI  17
LEADVILLE      PTCLDY    15   0  51 N5        30.14S WCI   8
MONARCH PASS   PTCLDY    19  -4  35 W37G45    30.24S WCI  -1
SALIDA         PTCLDY    34   4  28 CALM      30.15R
SUNLIGHT       PTCLDY    23  10  58 SW3       30.20S
WILKERSON PASS MOCLDY    27 -15  15 NW10G17   30.14S WCI  17
$$

COZ069>075-200500-
...SAN LUIS VALLEY/SANGRE DE CRISTO MOUNTAINS...

CITY           SKY/WX    TMP DP  RH WIND       PRES   REMARKS
ALAMOSA        PTCLDY    15   9  76 SW6       30.14F WCI   6
LA VETA PASS   MOCLDY    23  10  58 S12G24    30.10S WCI  12
SAGUACHE       NOT AVBL
$$

COZ035-036-038>040-200500-
...NORTHERN COLORADO FRONT RANGE...

CITY           SKY/WX    TMP DP  RH WIND       PRES   REMARKS
DENVER INTL AP PTCLDY    33  22  63 W3        30.01R
DMNS CITY PARK   N/A     28  22  78 NE2       30.01S
AURORA         PTCLDY    30  23  77 S7        30.02R WCI  23
FRONT RANGE AP NOT AVBL
ERIE MUNI ARPT PTCLDY    23  21  92 CALM      30.03R
BOULDER MUN AP PTCLDY    32  21  64 SW6       30.02S WCI  26
CENTENNIAL     PTCLDY    29  20  69 S7        30.00S WCI  22
BROOMFIELD     PTCLDY    30  21  69 W3        30.02R
FORT COLLINS   CLEAR     30  19  64 N8        30.03S WCI  23
LONGMONT       CLEAR     26  20  79 CALM      30.05R
$$

COZ041-046-047-076>085-087-088-200500-
...PIKES PEAK/PALMER DIVIDE AND SOUTHERN FOOTHILLS...

CITY           SKY/WX    TMP DP  RH WIND       PRES   REMARKS
COLO. SPRINGS  MOCLDY    27  18  69 NE9       30.04S WCI  18
A. F. ACADEMY  MOCLDY    23  13  64 N5        30.03S WCI  17
ELLICOTT       MOCLDY    26  19  74 E3        30.02S
FALCON         NOT AVBL
FORT CARSON    MOCLDY    29  21  71 NW8       30.02S WCI  21
LIMON          PTCLDY    16  13  88 N7        30.04S WCI   6
MONUMENT HILL  PTCLDY    27  18  69 SW8       30.02S WCI  18
TRINIDAD       CLOUDY    28  17  63 N10       30.02S WCI  19
$$

COZ042>045-048>051-090-091-200500-
...NORTHEAST COLORADO...

CITY           SKY/WX    TMP DP  RH WIND       PRES   REMARKS
GREELEY ARPT   PTCLDY    23  12  63 NW9       30.03S WCI  13
AKRON          CLEAR     26  15  63 CALM      30.01F
BURLINGTON     CLEAR     31  18  58 S14       30.03F WCI  21
WRAY           CLEAR     24  14  65 CALM      30.05S
STERLING       CLEAR     28  21  74 CALM      30.02F
HOLYOKE        CLEAR     21  14  73 CALM      30.06R
FORT MORGAN    CLEAR     27  15  62 CALM      30.02S
$$

COZ086-089-092>099-200500-
...SOUTHEAST COLORADO...

CITY           SKY/WX    TMP DP  RH WIND       PRES   REMARKS
PUEBLO         PTCLDY    31  24  75 SW5       30.03R WCI  26
LA JUNTA       PTCLDY    32  25  75 SW7       30.01S WCI  26
LAMAR          PTCLDY    27  23  85 E6        30.01S WCI  20
SPRINGFIELD      N/A     32  23  69 SW9       30.05R WCI  24
$$



USA.gov is the U.S. government's official web portal to all federal, state and local government web resources and services.